Find Local Weather

World > North America > United States > Colorado

Monte Vista, Colorado Regional Weather

Lat: 37.58N, Lon: 106.14W
Wx Zone: COZ070
Feedback
Expires:201804220400;;311166
ASUS45 KBOU 220310
RWRCO 

WEATHER ROUNDUP FOR COLORADO
NATIONAL WEATHER SERVICE PUEBLO CO
900 PM MDT SAT APR 21 2018

NOTE: "FAIR" INDICATES FEW OR NO CLOUDS BELOW 12000 FEET WITH NO
SIGNIFICANT WEATHER AND/OR OBSTRUCTIONS TO VISIBILITY.


COZ069>075-220400-
...SAN LUIS VALLEY/SANGRE DE CRISTO MOUNTAINS...
  
CITY           SKY/WX    TMP DP  RH WIND       PRES   REMARKS
ALAMOSA        PTCLDY    47  25  42 NW20G28   30.18R                  
DEL NORTE      FAIR      41  22  46 NW7       30.23R                  
LA VETA PASS   CLOUDY    32  28  86 SW8       30.37R WCI  25          
SAGUACHE       NOT AVBL                                               
$$


SKY/WX - Weather  TMP - Temperature  DP - Dewpoint  RH - Relative Humidity
WIND - Wind Direction/Speed PRES - Barometric Pressure